DELTA 1 DEB

Satellite information

Favourite Embed

Satellite Type and Status

DEBRISIN ORBIT

Key statistics

Satellite DELTA 1 DEB at a glance.

Uptime

18991

Days in orbit

Revolutions

≈ 12.4

Per day

Orbit

SSO

Sun Synchronous Orbit

Inclination

101.7

Latest

Satellite identification and parameters

Extended collection of information and parameters for DELTA 1 DEB.

Object identification

Identified? True

Debris? True

Object name: DELTA 1 DEB

International designator: 1973-086CX

Object number (NORAD): 7133

Object ID (CCSDS): 7133

Country: UNITED STATES OF AMERICA (US)

Current information (Y/N): Y

RCS size: SMALL

Orbital parameters

Period: 115.99 minutes

Inclination: 101.6978 deg

SMA: 7878.429 km

Apoapsis: 1528.028 km

Periapsis: 1472.561 km

RAAN: 343.9424 deg

Eccentricy: 0.00352015

Argument of periapsis: 34.9339 deg

Mean anomaly: 36.5412 deg

Mean motion: 12.41490223 rev/day

Mean motion (dot): 0.00000226 rev/day2

B* drag term: 0.0019692248 1/REarth

Two-line elements (TLE)

Creation date: Nov. 2, 2025, 5:34 p.m.

Reference frame: TEME

Reference center: EARTH

Epoch: Nov. 2, 2025, 12:33 a.m. UTC

TLE line 0: 0 DELTA 1 DEB

TLE line 1: 1 07133U 73086CX 25306.02348161 .00000226 00000-0 19692-2 0 9998

TLE line 2: 2 07133 101.6978 343.9424 0035202 34.9339 36.5412 12.41490223352155

Live tracking on map

Real-time ground track for satellite DELTA 1 DEB.

In-orbit conjunctions

A list of the most updated potential collisions computed for object DELTA 1 DEB.

Target Orbit TCA Probability of collision Miss distance Type
COSMOS 1559 LEO 2024-12-07 19:10:19 0.0001909556 338.0 (m) PAYLOAD

Associated space launch

Meteorological satellite using radiometric imaging

DELTA 1 DEB was lifted into orbit during the mission ‘Delta 0300 | NOAA 3’, on board a Delta 0300 space rocket.

The launch took place on Nov. 6, 1973, 5:02 p.m. from Space Launch Complex 2W.

For more information about the launch, click the button.

Launch to space Delta 0300 | NOAA 3
Delta 0300 | NOAA 3

Agency: N/A

Status: Launch Successful

Launch date: Nov. 6, 1973, 5:02 p.m. UTC

Rocket: Delta 0300

Launch pad: Space Launch Complex 2W

Location: Vandenberg SFB, CA, USA

...

Latest news about this satellite

There are no fresh news available about this satellite. Check back as we update our databases every day.


Newsletter sign-up

Weekly statistics, charts and insights to help you stay on top of the space industry.